Location: Unspecified
(0.0000°N, 0.0000°E)
Time: 18:09:29
(UTC+00:00)

Envisat - Pass Details

Date: 11 May 2021
Orbit: 764 x 766 km, 98.1° (Epoch: 14 May)

Event Time Altitude Azimuth Distance (km) Brightness Sun altitude
Rises 18:17:22 0° 207° (SSW) 3,229 6.4 -5.0°
Reaches altitude 10° 18:21:30 10° 240° (WSW) 2,299 6.1 -6.0°
Maximum altitude 18:22:59 11° 257° (WSW) 2,211 6.4 -6.3°
Drops below altitude 10° 18:24:29 10° 275° (W) 2,296 7.1 -6.7°
Sets 18:28:37 0° 308° (NW) 3,217 7.8 -7.7°
